CDT,Max TemperatureF,Mean TemperatureF,Min TemperatureF,Max Dew PointF,MeanDew PointF,Min DewpointF,Max Humidity, Mean Humidity, Min Humidity, Max Sea Level PressureIn, Mean Sea Level PressureIn, Min Sea Level PressureIn, Max VisibilityMiles, Mean VisibilityMiles, Min VisibilityMiles, Max Wind SpeedMPH, Mean Wind SpeedMPH, Max Gust SpeedMPH,PrecipitationIn, CloudCover, Events, WindDirDegrees
2014-3-1,73,62,51,58,55,49,100,79,57,30.20,30.15,30.08,10,10,10,15,9,20,0.00,4,,150
2014-3-2,72,62,52,60,57,52,100,81,61,30.19,30.11,29.99,10,7,0,15,8,19,0.00,3,Fog,152
2014-3-3,64,48,32,63,46,27,100,80,59,30.19,30.06,29.92,10,8,1,23,15,29,0.02,7,Rain,311
2014-3-4,38,35,31,36,32,27,100,89,78,30.22,30.14,30.09,10,6,3,17,9,21,0.29,8,Rain,11
2014-3-5,57,48,38,51,45,40,100,86,72,30.12,30.06,30.01,10,6,2,13,7,16,0.06,8,Rain,26
2014-3-6,54,46,37,53,50,32,100,97,93,29.99,29.95,29.90,10,5,1,21,8,24,0.44,8,Rain,357
2014-3-7,61,51,41,45,42,39,100,76,51,30.09,30.04,29.98,10,9,5,23,7,29,0.00,6,,2
2014-3-8,66,53,40,53,48,40,100,80,60,30.20,30.15,30.08,10,9,2,15,4,21,0.00,4,,153
2014-3-9,74,62,49,55,52,48,100,71,41,30.25,30.18,30.12,10,9,5,13,4,17,0.00,2,,262
2014-3-10,79,64,49,57,53,51,100,70,39,30.16,30.07,29.97,10,10,10,17,5,21,0.00,1,,254
2014-3-11,66,61,56,64,60,55,100,94,87,29.96,29.82,29.72,10,6,3,18,7,23,0.13,7,Rain,140
2014-3-12,66,56,45,63,54,34,100,76,51,30.14,29.84,29.71,10,7,2,26,12,34,0.00,6,,285
2014-3-13,64,49,34,41,32,26,92,56,17,30.30,30.23,30.15,10,10,10,14,8,23,0.00,0,,343
2014-3-14,67,53,38,52,44,38,100,71,42,30.30,30.22,30.14,10,10,8,20,8,27,0.00,1,,135
2014-3-15,64,59,53,63,59,52,100,92,84,30.12,30.02,29.89,10,8,2,18,8,24,0.56,8,Rain,96
2014-3-16,70,65,60,68,65,60,100,95,90,29.85,29.71,29.62,10,7,0,33,12,45,1.29,7,Fog-Rain-Thunderstorm,195
2014-3-17,62,53,43,60,48,39,100,86,71,29.86,29.76,29.66,10,8,4,20,9,28,0.01,8,Rain,302
2014-3-18,61,52,43,47,42,39,96,76,55,30.03,29.93,29.83,10,9,5,16,6,20,0.00,6,,270
2014-3-19,73,58,43,55,49,43,100,71,41,30.15,30.08,30.01,10,9,5,17,4,22,0.00,3,Fog,181
2014-3-20,75,62,49,54,48,38,100,64,27,30.15,30.09,30.04,10,9,5,13,4,17,0.00,2,,324
2014-3-21,77,61,44,56,44,35,100,64,28,30.14,30.07,30.02,10,9,7,17,5,20,0.00,2,,138
2014-3-22,79,66,53,62,56,49,100,68,36,30.08,30.04,29.98,10,5,0,16,4,19,0.00,3,Fog,174
2014-3-23,72,59,46,65,60,45,100,84,68,30.18,30.05,29.98,10,5,0,26,10,32,0.15,6,Fog-Rain-Thunderstorm,272
2014-3-24,67,59,50,48,42,37,83,60,37,30.15,30.07,29.97,10,10,7,17,7,23,0.00,5,,14
2014-3-25,64,53,41,47,29,17,93,56,19,30.29,30.13,30.01,10,10,10,29,14,36,0.00,0,,327
2014-3-26,57,44,31,36,25,19,78,51,24,30.40,30.30,30.23,10,10,10,16,6,20,0.00,4,,74
2014-3-27,70,57,44,64,53,38,100,76,51,30.24,30.13,30.03,10,8,2,26,15,33,0.10,7,Rain,134
2014-3-28,65,61,57,64,61,58,100,99,97,30.05,29.98,29.89,10,5,0,29,11,35,2.81,8,Fog-Rain-Thunderstorm,110
2014-3-29,71,61,51,61,56,42,100,70,39,30.19,29.97,29.88,10,7,1,24,11,32,0.64,6,Rain-Thunderstorm,313
2014-3-30,71,57,43,48,40,34,93,60,26,30.27,30.19,30.14,10,10,7,17,6,20,0.00,2,,336
2014-3-31,74,58,41,51,44,35,100,64,27,30.19,30.14,30.10,10,10,7,15,6,20,0.00,1,,142